Tracking 35274 objects as of 12-Sep-2026
HD Live streaming from Space Station
objects crossing your sky now

COSMOS 886 DEB

Track COSMOS 886 DEB now!
10-day predictions


NORAD ID: 9824
Int'l Code: 1976-126AL
Launch date: December 27, 1976
Source: Commonwealth of Independent States (former USSR) (CIS)
Launch site: TYURATAM MISSILE AND SPACE COMPLEX (TTMTR)

Note: This is SATELLITE DEBRIS
Your satellite tracking list
Your tracking list is empty




NASA's NSSDC Master Catalog

Two Line Element Set (TLE):
1 09824U 76126AL  26254.31982512  .00002381  00000-0  55199-3 0  9991
2 09824  65.8074 231.5924 0861476 348.3135   9.8975 13.32930698366153
Source of the keplerian elements: AFSPC